Weather in Revda

Russia / Tyumen Oblast     56°52′40″N   66°36′36″E
temp.,
°C
wind,
m/s
gust,
m/s
humid.,
%
clouds,
%
prec.,
mm/h
press.,
hPa
HPBL,
m
20 april, tue
tue2023:00−5ne25540 0.0 1034135
02:00−5ese11565 0.0 103419
05:00−5sw11545 0.0 103430
08:00−2wsw35376 0.0 1034593
11:00+3w45305 0.0 10311239
14:00+6w57295 0.0 10281710
17:00+8wnw58345 0.0 10271797
20:00+4w35545 0.0 102668
21 april, wed
wed2123:00+2w311655 0.0 1026213
02:00+1wnw310725 0.0 1026213
05:000nnw27855 0.0 1027127
08:00+4n35725 0.0 1029366
11:00+8n465361 0.0 10301387
14:00+8n565198 0.0 10311534
17:00+8nne445032 0.0 10321372
20:00+5ne23675 0.0 103448
22 april, thu
thu2223:00+2e22710 0.0 103620
02:00+1ese22752 0.0 103616
05:000sse22794 0.0 103725
08:00+5sse35565 0.0 1039307
11:00+10s44435 0.0 10381126
14:00+13s45405 0.0 10381662
17:00+13s45409 0.0 10371767
20:00+9sse41054100 0.0 1037257
23 april, fri
fri2323:00+8sse51354100 0.0 1037451
02:00+6s51354100 0.0 1037432
05:00+5sse411575 0.0 1037320
08:00+8s494917 0.0 1037398
11:00+13s5738100 0.0 10351046
14:00+16s6836100 0.0 10342308
17:00+14ssw5741100 0.0 10331883
20:00+11s3947100 0.0 1034335
24 april, sat
sat2423:00+9sse3953100 0.0 1033239
02:00+7sse3956100 0.0 1032229
05:00+6sse3860100 0.0 1031185
08:00+9s4750100 0.0 1030358
11:00+11s4639100 0.0 1029740
14:00+14sse5730100 0.0 10281641
17:00+13s4632100 0.0 10271724
20:00+10se2246100 0.0 102634